Chamberlain, SD

9:35 AM CDT on October 17, 2017 (GMT -0500)
Chamberlain

Weather History for K9V9 - January, 2014

Change the Weather History Date:

Tuesday, January 28, 2014

  Actual Average Record
Temperature  
Mean Temperature 6 °F -  
Max Temperature 17 °F 29 °F 55 °F (2015)
Min Temperature -5 °F 12 °F -14 °F (1997)
Degree Days  
Heating Degree Days 59    
Moisture  
Dew Point -6 °F    
Average Humidity 64    
Maximum Humidity 76    
Minimum Humidity 41    
Precipitation  
Precipitation 0.00 in - - ()
Sea Level Pressure  
Sea Level Pressure 30.38 in    
Wind  
Wind Speed 6 mph (WNW)    
Max Wind Speed 15 mph    
Max Gust Speed 22 mph    
Averages and records for this station are not official NWS values.
T = Trace of Precipitation, MM = Missing Value Source: NWS Daily Summary

Daily Weather History Graph

Daily Weather History Graph

Search for Another Location

Airport or City:

Trip Planner

Search our weather history database for the weather conditions in past years. The results will help you decide how hot, cold, wet, or windy it might be!

Date:

Astronomy

Jan. 28, 2014 Rise Set
Actual Time 7:58 AM CST 5:42 PM CST
Civil Twilight 7:27 AM CST 6:13 PM CST
Nautical Twilight 6:52 AM CST 6:48 PM CST
Astronomical Twilight 6:18 AM CST 7:22 PM CST
Moon 5:42 AM CST (1/28) 3:33 PM CST (1/28)
Length of Visible Light 10h 46m
Length of Day
9h 44m
Waning Crescent, 7% of the Moon is Illuminated
Jan 28
Waning Crescent
Jan 30
New
Feb 6
First Quarter
Feb 14
Full
Feb 22
Last Quarter

Hourly Weather History & Observations

Time (CST) Temp. Windchill Dew Point Humidity Pressure Visibility Wind Dir Wind Speed Gust Speed Precip Events Conditions
12:52 AM -2.0 °F -12.2 °F -9.0 °F 72% 30.51 in - WNW 4.6 mph - N/A   Unknown
1:52 AM -2.9 °F -16.5 °F -9.0 °F 75% 30.50 in - West 6.9 mph - N/A   Unknown
2:52 AM -4.0 °F -12.4 °F -9.9 °F 76% 30.50 in - NW 3.5 mph - N/A   Unknown
3:52 AM -4.0 °F - -9.9 °F 76% 30.50 in - Calm Calm - N/A   Unknown
4:52 AM -5.1 °F -15.8 °F -11.0 °F 76% 30.50 in - North 4.6 mph - N/A   Unknown
5:52 AM -4.0 °F -14.6 °F -9.9 °F 76% 30.50 in - NNW 4.6 mph - N/A   Unknown
6:52 AM -4.0 °F - -9.9 °F 76% 30.50 in - Calm Calm - N/A   Unknown
7:52 AM -5.1 °F - -11.9 °F 72% 30.49 in - Calm Calm - N/A   Unknown
8:52 AM -2.0 °F -10.1 °F -8.0 °F 76% 30.48 in - WNW 3.5 mph - N/A   Unknown
9:52 AM 3.0 °F -11.5 °F -4.0 °F 73% 30.47 in - WNW 9.2 mph - N/A   Unknown
10:52 AM 7.0 °F -8.3 °F -2.9 °F 64% 30.46 in - WNW 11.5 mph - N/A   Unknown
11:52 AM 10.0 °F -4.5 °F -4.0 °F 53% 30.43 in - WNW 11.5 mph - N/A   Unknown
12:52 PM 12.0 °F -2.7 °F -4.0 °F 49% 30.39 in - WNW 12.7 mph 20.7 mph N/A   Unknown
1:52 PM 15.1 °F -0.1 °F -5.1 °F 41% 30.36 in - NW 15.0 mph 21.9 mph N/A   Unknown
2:52 PM 17.1 °F 3.0 °F -2.9 °F 41% 30.33 in - NNW 13.8 mph - N/A   Unknown
3:52 PM 17.1 °F 3.6 °F -2.0 °F 43% 30.31 in - NW 12.7 mph - N/A   Unknown
4:52 PM 17.1 °F 3.6 °F -2.0 °F 43% 30.30 in - NW 12.7 mph - N/A   Unknown
5:52 PM 12.9 °F 5.2 °F -2.0 °F 51% 30.29 in - NW 4.6 mph - N/A   Unknown
6:52 PM 9.0 °F - -2.9 °F 59% 30.28 in - Calm Calm - N/A   Unknown
7:52 PM 8.1 °F 1.4 °F -2.9 °F 61% 30.25 in - South 3.5 mph - N/A   Unknown
8:52 PM 6.1 °F -5.6 °F -4.0 °F 63% 30.23 in - SW 6.9 mph - N/A   Unknown
9:52 PM 5.0 °F -5.6 °F -2.0 °F 73% 30.21 in - SW 5.8 mph - N/A   Unknown
10:52 PM 5.0 °F -6.9 °F -2.0 °F 73% 30.19 in - SSW 6.9 mph - N/A   Unknown
11:52 PM 3.9 °F -3.4 °F -2.9 °F 73% 30.17 in - SW 3.5 mph - N/A   Unknown